Location: Ithaca
(42.4410°N, 76.4970°W)
Time: 15:39:10
(UTC-05:00)

Hubble Space Telescope - Visible Passes

Search period start: 06 February 2016 00:00
Search period end: 16 February 2016 00:00
Orbit: 540 x 544 km, 28.5° (Epoch: 06 February)

Date Brightness Start Highest point End Pass type
(mag) Time Alt. Az. Time Alt. Az. Time Alt. Az.
13 Feb 3.5 19:51:07 10° SSW 19:51:13 10° SSW 19:51:13 10° SSW visible
14 Feb 3.3 19:41:24 10° SSW 19:42:24 11° S 19:42:24 11° S visible
15 Feb 3.2 19:31:48 10° SSW 19:33:18 12° S 19:33:35 12° S visible
